Regional Weather Roundup
Issued by NWS

Home | Current Version | Previous Version | Text Only | Print | Product List | Glossary On
Versions: 1 2 3 4 5 6 7 8 9 10 11 12 13 14 15 16 17 18 19 20 21 22 23 24 25 26 27 28 29 30 31 32 33 34 35 36 37 38 39 40 41 42 43 44 45 46 47 48 49 50
000
ASHW40 PHFO 291913
RWRHI

WEATHER ROUNDUP FOR HAWAII
NATIONAL WEATHER SERVICE HONOLULU HI
900 AM HST SUN MAY 29 2016

THIS IS AN AUTOMATED REPORT THAT HAS NOT BEEN QUALITY CONTROLLED.

NOTE..."FAIR" INDICATES FEW OR NO CLOUDS BELOW 12,000 FEET WITH NO
SIGNIFICANT WEATHER AND/OR OBSTRUCTIONS TO VISIBILITY.

* - THESE SITES REPORT LIMITED FIELDS

HIZ001>004-292000-
KAUAI-NIIHAU-

CITY           SKY/WX    TMP DP  RH WIND       PRES   REMARKS
LIHUE APT      SUNNY     78  69  73 E5        30.04R
PORT ALLEN*      N/A     81 N/A N/A SW5         N/A
POIPU*           N/A     81 N/A N/A NE5         N/A
PRINCEVILLE*     N/A     79 N/A N/A E2          N/A
KOKOLE POINT*  NOT AVBL
MOLOAA DAIRY*    N/A     81  70  69 E2          N/A
WAIMEA HTS*    NOT AVBL
PUU OPAE*      NOT AVBL
PUU LUA*       NOT AVBL
MAKAHA RIDGE*  NOT AVBL
$$

HIZ005>011-292000-
OAHU-

CITY           SKY/WX    TMP DP  RH WIND       PRES   REMARKS
HONOLULU       MOSUNNY   78  68  71 S3        30.02S
KALAELOA       SUNNY     80  67  64 SE6       30.03S
KANEOHE MCB    PTSUNNY   80  69  69 N5        30.00R
WHEELER FIELD  FAIR      77  67  70 VRB3      30.03R
BELLOWS*       NOT AVBL
KAHUKU*        NOT AVBL
WHEELER*       NOT AVBL
WAIANAE HARBOR NOT AVBL
DILLINGHAM*      N/A     88  72  58 MISG        N/A  HX  94
KAHUKU TRN*      N/A     81  64  57 CALM        N/A
KAWAILOA*        N/A     79  64  61 SW1         N/A
KII*             N/A     79  72  78 E7          N/A
MAKUA RANGE*     N/A     79  66  65 W3          N/A
OAHU FOREST NW NOT AVBL
SCHOFIELD BRK*   N/A     75  64  69 MISG        N/A
SCHOFIELD S*   NOT AVBL
WAIANAE VLY*   NOT AVBL
KUAOKALA*      NOT AVBL
HONOULIUULI*   NOT AVBL
MOKUOLOE IS*   NOT AVBL
PALEHUA*       NOT AVBL
WAIAWA PHB*    NOT AVBL
$$

HIZ012>013-292000-
MOLOKAI-

CITY           SKY/WX    TMP DP  RH WIND       PRES   REMARKS
MOLOKAI AIRPT  MOSUNNY   77  64  64 CALM      30.04R
KALAUPAPA      NOT AVBL
MAKAPULAPAI*   NOT AVBL
MOLOKAI 1*     NOT AVBL
PUU ALII*      NOT AVBL
$$

HIZ016-292000-
KAHOOLAWE-

CITY           SKY/WX    TMP DP  RH WIND       PRES   REMARKS
KAHOOLAWE*     NOT AVBL
HAKIOAWA*      NOT AVBL
HONOKANAIA*      N/A     81  68  63 E8G15     29.96S
KANELOA*         N/A     77  68  73 E8        30.09R
KEALIALALO*    NOT AVBL
LUA MAKIKA*    NOT AVBL
$$

HIZ014>015-292000-
LANAI-

CITY           SKY/WX    TMP DP  RH WIND       PRES   REMARKS
LANAI CITY     PTSUNNY   73  66  78 NW6       30.09R
LANAI 1*       NOT AVBL
$$

HIZ017>028-292000-
MAUI-

CITY           SKY/WX    TMP DP  RH WIND       PRES   REMARKS
KAHULUI        MOSUNNY   80  66  62 CALM      30.02S
KAPALUA-W MAUI MOSUNNY   81  66  61 VRB3      30.04
HANA AIRPORT   NOT AVBL
HANA*            N/A     79 N/A N/A E8          N/A
HALEAKALA SUMM   N/A     48  23  37 N12         N/A
MAALAEA BAY*   NOT AVBL
HALEAKALA*     NOT AVBL
KAUPO GAP*     NOT AVBL
KULA 1*          N/A     58  43  58 NW3         N/A
$$

HIZ023>026-292000-
BIG ISLAND OF HAWAII COAST AND LOWER SLOPES-

CITY           SKY/WX    TMP DP  RH WIND       PRES   REMARKS
KAILUA KONA    MOSUNNY   80  70  71 S10       30.01R
HILO           MOSUNNY   80  66  62 S6        30.03S
HONOKAA*         N/A     79 N/A N/A VRB1        N/A
KAWAIHAE MWT*    N/A     79 N/A N/A NW6         N/A
KAWAIHAE*      NOT AVBL
SOUTH POINT*     N/A     73 N/A N/A N7          N/A
UPOLU AIRPORT*   N/A    N/A N/A N/A NE10        N/A
KAMUELA*       NOT AVBL
HAKALAU*         N/A     61  55  79 NE5G10      N/A
KALOKO-HONOKO* NOT AVBL
PALI 2*          N/A     68  61  77 N6          N/A
KEALAKOMO*       N/A     81  66  61 E6          N/A
KAUPULEHU*     NOT AVBL
KAPAPALA*        N/A     73  63  71 VRB1        N/A
LOWER KAHUKU*  NOT AVBL
PUHE CS*       NOT AVBL
PUHO CS*       NOT AVBL
PTA KEAMUKU*     N/A     73  48  40 CALM        N/A
WAIKOLOA*      NOT AVBL
$$

HIZ027>028-292000-
BIG ISLAND OF HAWAII INTERIOR AND SUMMMITS-

CITY           SKY/WX    TMP DP  RH WIND       PRES   REMARKS
BRADSHAW FIELD SUNNY     64  51  63 W7        30.32S
MK VISITOR CEN   N/A     52  43  71 W9          N/A
MAUNA KEA*       N/A     43  -2  15 N18         N/A
MAUNA LOA*     NOT AVBL
MAUNA LOA 1*   NOT AVBL
PTA KIPUKA*      N/A     66  52  59 N5G10       N/A
PTA RANGE 17*    N/A     52  37  58 NW7         N/A
PTA WEST*        N/A     68  50  52 N7          N/A
NENE CABIN*    NOT AVBL
AHUMOA*        NOT AVBL
PTA PORTABLE*  NOT AVBL
PUU MALI*        N/A     61  46  59 NW8         N/A
$$

HIC003-292000-
NORTHWEST ISLANDS-

CITY           SKY/WX    TMP DP  RH WIND       PRES   REMARKS
MIDWAY ISLAND  CLOUDY    72  64  78 E8        30.19R
MIDWAY NOS*    NOT AVBL
FRENCH FRIGATE NOT AVBL
$$

PHZ110>124-180-292000-
BUOY REPORTS

STATION/POSITION TIME  TEMP    WIND        PRES    WAVE   SWELL
                       AIR SEA DIR/SP/G            HT/PER HT/DIR
                 (UTC) (F)     (DEG/KT/KT) (MB)    (FT/S) (FT/D)
BUOY 51001       1800   78 80   60/ 12/ 14 1017.4R
BUOY 51101       1850   76 79   30/  8/ 10 1017.5R   4/12   3/310
BUOY 51100       NOT AVBL
BUOY 51002       1850   78 79   80/ 10/ 12 1016.0R   5/ 8   5/100
BUOY 51003       1850   80 81     CALM     1016.2R   4/15
BUOY 51004       1850   77 79   80/  8/ 10 1016.4R   6/ 8   5/ 90
BARBERS PT BUOY  NOT AVBL
WAIMEA BAY BUOY  1804      79                N/A     2/14
KAILUA BAY BUOY  1811      78                N/A     3/ 8   2/140
LANAI BUOY       1815      80                N/A     2/14   2/180
BARBERS PT 2     1803      79                N/A     3/15   2/150
PAUWELA MAUI     1809      79                N/A     4/ 8   2/ 80
HILO             1812      79                N/A     5/ 8   2/130
KANEOHE BAY BUOY 1806      78                N/A     2/ 8
HANALEI KAUAI    NOT AVBL
KAHULUI HARBOR   1800   77 79   CALM  /  2 1016.2R
HONOLULU HARBOR  1800   76 79  300/  2/  3 1017.0R
KILO NALU        NOT AVBL
HILO HARBOR      1800   80 78   CALM  /  4 1016.2R
MOKUOLOE         1800   81 81   CALM  /  1 1016.4R
NAWILIWILI       1800   73 80  230/  3/  4 1016.7R
WHOTS BUOY       NOT AVBL
BUOY 51028       NOT AVBL
$$

......................KEY........................................
  SKY/WX - SKY CONDITIONS/PRESENT WEATHER
  TMP    - TEMPERATURE IN FAHRENHEIT
  DWPT   - DEWPOINT IN FAHRENHEIT
  RH     - RELATIVE HUMIDITY IN PERCENT
  WIND   - DIRECTION AND SPEED /MPH FOR ISLANDS...KTS FOR BUOYS/
  PRES   - MEAN SEA LEVEL PRESSURE IN INCHES OF HG
  VSB    - VISIBILITY IN MILES
  HX     - HEAT INDEX
  WCI    - WIND CHILL INDEX
  VRB    - VARIABLE WIND DIRECTION
  N/A    - NOT AVAILABLE



USA.gov is the U.S. government's official web portal to all federal, state and local government web resources and services.